CZ-6A DEB, 54282

Orbit data source: Space-Track

CZ-6A DEB, 54282 is space debris in SSO originally from a launch on Fri, 11 Nov 2022 UTC launched from the Taiyaun Space Center, China (TSC). Debris objects in space refer to the collection of defunct objects orbiting the Earth. Examples of debris include non-operational satellites, rocket bodies, and fragments generated from explosions, collisions, or faulty payload assembly.

Loading next visibility...
Identifier
54282, 2022-151Z
Orbit
SSO
Country
Flag of CNCN / PRC
Related business
Manufacturer
SAST
Mission
Spacecraft
Bus & Motor
Unknown
Mass
Unknown
Launch date (UTC)
2022-11-11 (4 years ago)
Launch vehicle
Unknown
Launch site
Taiyaun Space Center, China (TSC)
Object type
Payload
Rocket body
Debris
Shape & HBR
Unknown shape, 0.1 m
Radar Cross Section
Medium (>0.1 m² and <1 m²)

Expand to show TLE details & history
Last TLE update: 1 day ago

TLE from 1 day ago
0 CZ-6A DEB
1 54282U 22151Z   26263.12110878  .00009924  00000-0  12025-2 0  9995
2 54282  98.5762 325.4099 0049283 347.7172  12.2834 14.82978445203927
Epoch: 2026-09-20T02:54Z
TLE epoch observation values (Epoch: 2026-09-20T02:54:23.798Z)
Latitude
-0.00005°
Longitude
-77.20909°
Altitude
589.244 km
Speed
7.584 km/s
True Right ascension
21h 41m 38s
True Declination
0° 00' 00"
Sunlit
Object was in full shadow at epoch
Visualization orbit readout
Latitude
Unknown
Longitude
Unknown
Altitude
Unknown
Speed
Unknown
Apparent Right ascension
Unknown
Apparent Declination
Unknown
Sunlit
N/A
Visualization observer readout
Local Sidereal Time
02:03:24
Azimuth
Unknown
Elevation
Unknown
Doppler factor
Unknown
Orbital elements
Apogee altitude
651.481 km
Perigee altitude
582.533 km
Semi-major axis
6,995.144 km
Eccentricity
0.00493
Inclination
98.5762°
RAAN
325.4099°
Arg. of periapsis
347.7172°
True anomaly
12.40427°
Mean anomaly
12.2834°
Eccentric anomaly
12.34376°
Mean motion
3.70978 °/min
Orbital period
97.04 mins
BSTAR
0.0012025
Loading maneuver chart data...
Computing Atmospheric mass density...
Loading historical data...
Loading historical data...
Loading historical data...
Loading historical data...
Loading historical data...
Loading historical data...
Loading historical data...

Documentation

Showing up to 5 results
|